Dickinson, ND

11:18 PM MST on December 10, 2017 (GMT -0700)
Dickinson Municipal

Weather History for KDIK - October, 2013

Change the Weather History Date:

Friday, October 25, 2013

  Actual Average Record
Temperature  
Mean Temperature 47 °F 40 °F  
Max Temperature 62 °F 52 °F 78 °F (1955)
Min Temperature 32 °F 28 °F -1 °F (1919)
Degree Days  
Heating Degree Days 18 25  
Month to date heating degree days 526 496  
Since 1 July heating degree days 694 850  
Cooling Degree Days 0 0  
Month to date cooling degree days 0 0  
Year to date cooling degree days 386 418  
Moisture  
Dew Point 32 °F    
Average Humidity 61    
Maximum Humidity 89    
Minimum Humidity 33    
Precipitation  
Precipitation 0.00 in 0.04 in 0.49 in (1913)
Month to date precipitation 4.31 1.05  
Year to date precipitation 20.80 14.81  
Sea Level Pressure  
Sea Level Pressure 30.07 in    
Wind  
Wind Speed 14 mph (WNW)    
Max Wind Speed 23 mph    
Max Gust Speed 28 mph    
Visibility 10 miles    
Events      
T = Trace of Precipitation, MM = Missing Value Source: NWS Daily Summary

Daily Weather History Graph

Daily Weather History Graph

Search for Another Location

Airport or City:

Trip Planner

Search our weather history database for the weather conditions in past years. The results will help you decide how hot, cold, wet, or windy it might be!

Date:

Astronomy

Oct. 25, 2013 Rise Set
Actual Time 7:23 AM MDT 5:46 PM MDT
Civil Twilight 6:52 AM MDT 6:17 PM MDT
Nautical Twilight 6:16 AM MDT 6:52 PM MDT
Astronomical Twilight 5:41 AM MDT 7:27 PM MDT
Moon 11:02 PM MDT (10/25) 1:11 PM MDT (10/25)
Length of Visible Light 11h 24m
Length of Day
10h 22m
Waning Gibbous, 62% of the Moon is Illuminated
Oct 25
Waning Gibbous
Oct 26
Last Quarter
Nov 3
New
Nov 9
First Quarter
Nov 17
Full

Hourly Weather History & Observations

Time (MDT) Temp. Windchill Dew Point Humidity Pressure Visibility Wind Dir Wind Speed Gust Speed Precip Events Conditions
12:56 AM 32.0 °F 22.5 °F 26.1 °F 79% 30.16 in 10.0 mi South 12.7 mph - N/A   Clear
1:56 AM 33.1 °F 21.9 °F 27.0 °F 78% 30.12 in 10.0 mi South 18.4 mph - N/A   Clear
2:56 AM 33.1 °F 23.4 °F 28.0 °F 82% 30.11 in 10.0 mi South 13.8 mph - N/A   Clear
3:56 AM 33.1 °F 23.4 °F 28.0 °F 82% 30.08 in 10.0 mi South 13.8 mph - N/A   Clear
4:56 AM 36.0 °F 26.3 °F 30.9 °F 82% 30.04 in 10.0 mi SSW 16.1 mph - N/A   Clear
5:56 AM 34.0 °F 28.0 °F 30.9 °F 89% 30.03 in 10.0 mi SSW 6.9 mph - N/A   Clear
6:56 AM 39.0 °F 31.8 °F 34.0 °F 82% 30.03 in 10.0 mi WSW 11.5 mph - N/A   Clear
7:56 AM 39.9 °F 34.5 °F 35.1 °F 83% 30.03 in 10.0 mi WSW 8.1 mph - N/A   Clear
8:56 AM 46.9 °F - 37.9 °F 71% 30.01 in 10.0 mi West 13.8 mph - N/A   Clear
9:56 AM 52.0 °F - 39.0 °F 61% 30.00 in 10.0 mi West 18.4 mph 21.9 mph N/A   Clear
10:56 AM 55.9 °F - 39.9 °F 55% 30.00 in 10.0 mi WNW 19.6 mph - N/A   Clear
11:56 AM 57.9 °F - 41.0 °F 53% 30.00 in 10.0 mi WNW 15.0 mph - N/A   Clear
12:56 PM 61.0 °F - 39.0 °F 44% 29.99 in 10.0 mi NW 18.4 mph 27.6 mph N/A   Clear
1:56 PM 61.0 °F - 36.0 °F 39% 30.00 in 10.0 mi NNW 18.4 mph - N/A   Clear
2:56 PM 60.1 °F - 35.1 °F 39% 30.01 in 10.0 mi NNW 18.4 mph 25.3 mph N/A   Clear
3:56 PM 59.0 °F - 30.9 °F 35% 30.02 in 10.0 mi NW 19.6 mph - N/A   Clear
4:56 PM 57.0 °F - 32.0 °F 39% 30.03 in 10.0 mi NW 16.1 mph 23.0 mph N/A   Clear
5:56 PM 53.1 °F - 30.0 °F 41% 30.06 in 10.0 mi NW 17.3 mph 25.3 mph N/A   Clear
6:56 PM 46.0 °F 41.0 °F 30.9 °F 56% 30.09 in 10.0 mi WNW 10.4 mph - N/A   Clear
7:56 PM 42.1 °F 36.6 °F 28.9 °F 60% 30.14 in 10.0 mi WNW 9.2 mph - N/A   Clear
8:56 PM 42.1 °F 35.2 °F 26.1 °F 53% 30.14 in 10.0 mi NW 12.7 mph - N/A   Clear
9:56 PM 39.9 °F 32.5 °F 24.1 °F 53% 30.17 in 10.0 mi NW 12.7 mph - N/A   Clear
10:56 PM 37.9 °F 30.9 °F 23.0 °F 55% 30.17 in 10.0 mi NNW 10.4 mph - N/A   Clear
11:56 PM 37.0 °F 30.4 °F 23.0 °F 57% 30.19 in 10.0 mi NNW 9.2 mph - N/A   Clear